AirNav   Air Wisconsin pilot careers
 
 427 users online  

7Q7 White River Municipal Airport
White River, South Dakota, USA

GOING TO WHITE RIVER?


FAA INFORMATION EFFECTIVE 13 SEPTEMBER 2018

Location

FAA Identifier: 7Q7
Lat/Long: 43-33-41.9910N / 100-44-30.5000W
43-33.699850N / 100-44.508333W
43.5616642 / -100.7418056
(estimated)
Elevation: 2151 ft. / 656 m (estimated)
Variation: 09E (1985)
From city: 1 mile S of WHITE RIVER, SD
Time zone: UTC -6 (UTC -7 during Standard Time)
Zip code: 57579

Airport Operations

Airport use: Open to the public
Control tower: no
ARTCC: MINNEAPOLIS CENTER
FSS: HURON FLIGHT SERVICE STATION
NOTAMs facility: HON (NOTAM-D service available)
Attendance: UNATNDD
Wind indicator: lighted
Segmented circle: no
Beacon: white-green (lighted land airport)
Operates sunset to sunrise.

Airport Communications

CTAF/UNICOM: 122.8

Airport Services

Powerplant service: NONE
Bottled oxygen: NONE

Runway Information

Runway 12/30

Dimensions: 3000 x 150 ft. / 914 x 46 m
Surface: turf, in fair condition
Gradient: SE
RUNWAY 12  RUNWAY 30
Latitude: 43-33.824833N43-33.507333N
Longitude: 100-44.875000W100-44.354833W
Elevation: 2130.0 ft.2151.0 ft.
Gradient: 0.7% UP0.7%
Traffic pattern: leftleft
Runway end identifier lights: nono
Obstructions: 25 ft. pole, 750 ft. from runway, 182 ft. left of centerline, 30:1 slope to clearnone

Airport Ownership and Management from official FAA records

Ownership: Publicly-owned
Owner: CITY OF WHITE RIVER
PO BOX 102
WHITE RIVER, SD 57579
Phone 605-259-3242
Manager: KATHERINE O'BRIEN
PO BOX 102
WHITE RIVER, SD 57579
Phone 605-828-0503

Airport Operational Statistics

Aircraft operations: 118/year *
90% local general aviation
10% transient general aviation
* for 12-month period ending 24 August 2017

Additional Remarks

WILDLIFE ON & INVOF ARPT.
WATCH FOR HOLES MADE BY VARMINTS.

Instrument Procedures

There are no published instrument procedures at 7Q7.

Some nearby airports with instrument procedures:

KSUO - Rosebud Sioux Tribal Airport (19 nm S)
KICR - Winner Regional Airport (41 nm E)
KVTN - Miller Field Airport (43 nm S)
KPHP - Philip Airport (47 nm NW)
9V6 - Martin Municipal Airport (49 nm SW)
 
Loc | Ops | Rwys | IFR | FBO | Links
Com | Nav | Svcs | Stats | Notes

Mandan Aero Center
 
Area around 7Q7 (White River Municipal Airport)
 
Road maps at: MapQuest Bing Google
 
Aerial photo
WARNING: Photo may not be current or correct
Aerial photo of 7Q7 (White River Municipal Airport)
Photo by Steve Hamilton
Photo taken 19-May-2007

Do you have a better or more recent aerial photo of White River Municipal Airport that you would like to share? If so, please send us your photo.

 
Sectional chart

 
Airport distance calculator
Flying to White River Municipal Airport? Find the distance to fly.

From to 7Q7

Sunrise and sunset
Times for 25-Sep-2018
 Local
(UTC-6)
 Zulu
(UTC)
Morning civil twilight06:0612:06
Sunrise06:3512:35
Sunset18:3500:35
Evening civil twilight19:0301:03

Current date and time
Zulu (UTC)  25-Sep-2018 07:38:04
Local (UTC-6)  25-Sep-2018 01:38:04
 
METAR
KICR 
41nm E 
250653Z AUTO 36005KT 10SM -RA OVC012 11/09 A2996 RMK AO2 RAB01 SLP148 P0002 T01060089
KVTN 
43nm S 
250652Z AUTO 32009KT 5SM RA BR FEW055 OVC070 11/10 A2996 RMK AO2 LTG DSNT SW AND W SLP144 P0005 T01110100 $
KPHP 
47nm NW 
250655Z AUTO 35006KT 10SM -RA OVC060 11/10 A3000 RMK AO2 RAB00 SLP153 P0001 T01110100 401940089
9V6 
49nm SW 
SuperAWOS
250715Z AUTO 33011KT 7SM 09/07 A2993
TAF
KVTN 
43nm S 
250520Z 2506/2606 VRB04KT P6SM VCSH BKN040 FM250800 34005KT P6SM -SHRA OVC020 FM251200 32014KT P6SM OVC025 FM251700 33016G24KT P6SM SCT060 FM260400 31010KT P6SM FEW250
NOTAMs
Click for the latest NOTAMs
NOTAMs are issued by the DoD/FAA and will open in a separate window not controlled by AirNav.

 

 
 

Would you like to see your business listed on this page?

 If your business provides an interesting product or service to pilots, flight crews, aircraft, or users of the White River Municipal Airport, you should consider listing it here.  To start the listing process, click on the button below
 
Add a business
 

Other Pages about White River Municipal Airport

Update a link
 
Copyright © AirNav, LLC. All rights reserved. Privacy Policy  Contact